Jendouba, Tunisia

10:07 PM CET on October 14, 2019 (GMT +0100)
Jendouba

Weather History for DTTN - August, 2019

Change the Weather History Date:

Saturday, August 24, 2019

  Actual Average Record
Temperature  
Mean Temperature 81 °F -  
Max Temperature 91 °F 91 °F - ()
Min Temperature 71 °F 63 °F - ()
Cooling Degree Days 16    
Growing Degree Days 31 (Base 50)    
Moisture  
Dew Point 69 °F    
Average Humidity 66    
Maximum Humidity 90    
Minimum Humidity 37    
Precipitation  
Precipitation 0.00 in 0.04 in - ()
Sea Level Pressure  
Sea Level Pressure 29.99 in    
Wind  
Wind Speed 3 mph ()    
Max Wind Speed 12 mph    
Max Gust Speed -    
Visibility 6.2 miles    
Events Thunderstorm    
T = Trace of Precipitation, MM = Missing Value Source: Averaged Metar Reports

Daily Weather History Graph

Daily Weather History Graph

Search for Another Location

Airport or City:

Astronomy

Aug. 24, 2019 Rise Set
Actual Time 5:49 AM CET 7:04 PM CET
Civil Twilight 5:22 AM CET 7:31 PM CET
Nautical Twilight 4:50 AM CET 8:03 PM CET
Astronomical Twilight 4:17 AM CET 8:36 PM CET
Moon No Moon Rise 1:58 PM CET (8/24)
Length of Visible Light 14h 08m
Length of Day
13h 15m
Last Quarter, 41% of the Moon is Illuminated
Aug 24
Last Quarter
Aug 30
New
Sep 6
First Quarter
Sep 14
Full
Sep 22
Last Quarter

Hourly Weather History & Observations

Time (CET) Temp. Heat Index Dew Point Humidity Pressure Visibility Wind Dir Wind Speed Gust Speed Precip Events Conditions
12:00 AM 77.0 °F - 69.8 °F 78% 30.04 in 6.2 mi North 4.6 mph - N/A   Partly Cloudy
1:00 AM 77.0 °F - 69.8 °F 78% 30.01 in 6.2 mi NE 4.6 mph - N/A   Partly Cloudy
2:00 AM 75.2 °F - 69.8 °F 83% 30.01 in 5.0 mi Calm Calm - N/A   Partly Cloudy
3:00 AM 75.2 °F - 69.8 °F 83% 30.04 in 5.0 mi Calm Calm - N/A   Partly Cloudy
4:00 AM 73 °F - 69 °F 83% 30.02 in 6 mi South 2.3 mph - -   Scattered Clouds
5:00 AM 73.4 °F - 69.8 °F 88% 30.01 in 6.2 mi Calm Calm - N/A   Partly Cloudy
7:00 AM 74 °F - 72 °F 90% 30.03 in 6 mi ESE 2.3 mph - -   Partly Cloudy
7:00 AM 75.2 °F - 71.6 °F 89% 30.01 in 6.2 mi ESE 2.3 mph - N/A   Scattered Clouds
8:00 AM 78.8 °F - 71.6 °F 78% 30.01 in 6.2 mi NNE 2.3 mph - N/A   Partly Cloudy
9:00 AM 80.6 °F 84.6 °F 71.6 °F 74% 30.04 in 6.2 mi ENE 3.5 mph - N/A   Partly Cloudy
10:00 AM 84.2 °F 89.6 °F 71.6 °F 66% 30.01 in 6.2 mi NE 4.6 mph - N/A   Scattered Clouds
12:00 PM 89.6 °F 94.7 °F 69.8 °F 52% 29.98 in 6.2 mi WSW 4.6 mph - N/A   Scattered Clouds
1:00 PM 91 °F - 68 °F 37% 29.97 in 9 mi South 4.6 mph - -   Partly Cloudy
1:00 PM 91.4 °F 95.4 °F 68.0 °F 46% 29.95 in 6.2 mi South 4.6 mph - N/A   Scattered Clouds
2:00 PM 89.6 °F 92.2 °F 66.2 °F 46% 29.98 in 6.2 mi NW 3.5 mph - N/A   Scattered Clouds
3:00 PM 89.6 °F 93.4 °F 68.0 °F 49% 29.92 in 6.2 mi SW 2.3 mph - N/A Thunderstorm Thunderstorm
4:00 PM 84 °F - 67 °F 47% 29.95 in 6 mi North 11.5 mph - - Thunderstorm Thunderstorm
4:00 PM 84.2 °F 86.6 °F 66.2 °F 55% 29.95 in 6.2 mi North 11.5 mph - N/A Thunderstorm Thunderstorm
6:00 PM 86.0 °F 86.1 °F 60.8 °F 43% 29.95 in 6.2 mi ESE 4.6 mph - N/A   Scattered Clouds
7:00 PM 84.2 °F 86.6 °F 66.2 °F 55% 29.95 in 6.2 mi NE 2.3 mph - N/A   Scattered Clouds
8:00 PM 82.4 °F 84.6 °F 66.2 °F 58% 29.95 in 6.2 mi Calm Calm - N/A   Scattered Clouds
9:00 PM 80.6 °F 83.2 °F 68.0 °F 65% 29.98 in 6.2 mi ENE 4.6 mph - N/A   Scattered Clouds
10:00 PM 78.8 °F - 69.8 °F 74% 29.98 in 6.2 mi NNE 2.3 mph - N/A   Partly Cloudy
11:00 PM 78.8 °F - 69.8 °F 74% 29.98 in 6.2 mi NE 4.6 mph - N/A   Partly Cloudy